Wales, AK

2:58 PM AKDT on October 01, 2016 (GMT -0800)
Tin City LRRS

Weather History for PATC - July, 2013

Change the Weather History Date:

Thursday, July 25, 2013

  Actual Average Record
Temperature  
Mean Temperature 46 °F -  
Max Temperature 48 °F 49 °F 70 °F (2004)
Min Temperature 44 °F 41 °F 36 °F (2014)
Degree Days  
Heating Degree Days 19    
Moisture  
Dew Point 43 °F    
Average Humidity 92    
Maximum Humidity 100    
Minimum Humidity 76    
Precipitation  
Precipitation 0.00 in - - ()
Sea Level Pressure  
Sea Level Pressure 30.18 in    
Wind  
Wind Speed 12 mph (SW)    
Max Wind Speed 17 mph    
Max Gust Speed -    
Visibility 6 miles    
Events Fog , Rain    
Averages and records for this station are not official NWS values.
T = Trace of Precipitation, MM = Missing Value Source: NWS Daily Summary

Daily Weather History Graph

Daily Weather History Graph

Search for Another Location

Airport or City:

Trip Planner

Search our weather history database for the weather conditions in past years. The results will help you decide how hot, cold, wet, or windy it might be!

Date:

Astronomy

Jul. 25, 2013 Rise Set
Actual Time 5:38 AM AKDT 12:54 AM AKDT
Civil Twilight 3:50 AM AKDT 2:45 AM AKDT
Nautical Twilight Sun does not rise Sun does not rise
Astronomical Twilight Sun does not rise Sun does not rise
Moon 12:11 AM AKDT (7/25) 11:36 AM AKDT (7/25)
Length of Visible Light 22h 55m
Length of Day
19h 16m
Waning Gibbous, 87% of the Moon is Illuminated
Jul 25
Waning Gibbous
Jul 29
Last Quarter
Aug 6
New
Aug 14
First Quarter
Aug 20
Full

Hourly Weather History & Observations

Time (AKDT) Temp. Windchill Dew Point Humidity Pressure Visibility Wind Dir Wind Speed Gust Speed Precip Events Conditions
12:55 AM 44.8 °F 38.0 °F 40.5 °F 85% 30.24 in 10.0 mi NE 15.0 mph - N/A   Overcast
1:55 AM 44.4 °F 38.2 °F 40.3 °F 85% 30.23 in 10.0 mi NNE 12.7 mph - N/A   Mostly Cloudy
2:55 AM 45.0 °F 40.1 °F 40.3 °F 84% 30.22 in 10.0 mi NE 9.2 mph - N/A   Overcast
3:55 AM 47.5 °F - 40.3 °F 76% 30.21 in 10.0 mi West 1.2 mph - N/A   Overcast
4:55 AM 47.5 °F - 40.1 °F 76% 30.21 in 10.0 mi South 2.3 mph - N/A   Overcast
5:55 AM 47.7 °F - 43.7 °F 86% 30.20 in 10.0 mi SW 6.9 mph - N/A   Overcast
6:55 AM 48.0 °F - 43.3 °F 84% 30.19 in 10.0 mi WSW 9.2 mph - N/A   Overcast
7:20 AM 48.2 °F - 44.6 °F 87% 30.19 in 12.0 mi WSW 9.2 mph - N/A   Mostly Cloudy
7:55 AM 48.2 °F - 42.8 °F 82% 30.19 in 12.0 mi WSW 9.2 mph - N/A   Mostly Cloudy
8:55 AM 48.2 °F - 44.6 °F 87% 30.18 in 12.0 mi WSW 11.5 mph - N/A   Overcast
9:55 AM 46.4 °F 40.4 °F 42.8 °F 87% 30.18 in 10.0 mi WSW 13.8 mph - N/A   Overcast
10:10 AM 46.4 °F 40.4 °F 42.8 °F 87% 30.19 in 10.0 mi WSW 13.8 mph - N/A   Overcast
10:55 AM 46.4 °F 40.7 °F 42.8 °F 87% 30.18 in 10.0 mi WSW 12.7 mph - N/A   Overcast
11:55 AM 46.4 °F 40.7 °F 42.8 °F 87% 30.17 in 10.0 mi WSW 12.7 mph - N/A   Partly Cloudy
12:55 PM 46.4 °F 40.4 °F 42.8 °F 87% 30.18 in 10.0 mi WSW 13.8 mph - N/A   Mostly Cloudy
1:55 PM 46.2 °F 39.3 °F 44.1 °F 92% 30.18 in 10.0 mi WSW 17.3 mph - N/A   Overcast
2:55 PM 45.5 °F 38.6 °F 42.6 °F 90% 30.17 in 10.0 mi WSW 16.1 mph - N/A   Overcast
3:44 PM 44.6 °F 37.4 °F 44.6 °F 100% 30.17 in 4.0 mi SW 16.1 mph - N/A   Light Drizzle
3:55 PM 44.6 °F 37.2 °F 44.1 °F 98% 30.17 in 2.0 mi WSW 17.3 mph - N/A   Light Drizzle
4:04 PM 44.6 °F 37.4 °F 44.6 °F 100% 30.18 in 5.0 mi SW 16.1 mph - N/A   Drizzle
4:24 PM 44.6 °F 37.4 °F 44.6 °F 100% 30.17 in 10.0 mi SW 16.1 mph - N/A   Mostly Cloudy
4:44 PM 44.6 °F 37.4 °F 44.6 °F 100% 30.17 in 1.2 mi SW 16.1 mph - N/A Rain Light Rain Showers
4:55 PM 44.8 °F 37.7 °F 44.1 °F 97% 30.17 in 0.8 mi SW 16.1 mph - N/A Rain Light Rain Showers
5:44 PM 44.6 °F 37.2 °F 44.6 °F 100% 30.17 in 1.0 mi SW 17.3 mph - N/A Rain Light Rain
5:55 PM 44.4 °F 36.9 °F 44.2 °F 99% 30.17 in 0.8 mi SW 17.3 mph - N/A Rain Light Rain
6:55 PM 44.6 °F 37.8 °F 44.8 °F 100% 30.16 in 1.2 mi SSW 15.0 mph - N/A   Drizzle
7:04 PM 44.6 °F 38.1 °F 44.6 °F 100% 30.16 in 1.5 mi SSW 13.8 mph - N/A   Drizzle
7:44 PM 44.6 °F 38.1 °F 44.6 °F 100% 30.15 in 2.0 mi SSW 13.8 mph - N/A Rain Light Rain Showers
7:55 PM 45.0 °F 37.9 °F 45.0 °F 100% 30.15 in 0.2 mi SSW 16.1 mph - N/A Rain Light Rain Showers
8:24 PM 44.6 °F 37.8 °F 44.6 °F 100% 30.15 in 0.8 mi SW 15.0 mph - N/A   Drizzle
8:55 PM 44.8 °F 38.7 °F 45.0 °F 100% 30.15 in 0.2 mi SSW 12.7 mph - N/A   Drizzle
9:55 PM - - - N/A% 30.15 in 0.2 mi SSW 13.8 mph - N/A Fog , Rain Light Rain
10:55 PM - - - N/A% 30.15 in 0.2 mi SSW 15.0 mph - N/A Fog , Rain Light Rain
11:55 PM 46.2 °F 40.5 °F 46.6 °F 100% 30.15 in 0.2 mi South 12.7 mph - N/A Fog , Rain Light Rain